Home   Weather   Iráklion   Past weeks
Flag for Greece

Past Weather in Iráklion, Crete, Greece — Yesterday and Last 2 Weeks

Now
79 °F

Passing clouds.


Feels Like: 80 °F
Forecast: 82 / 70 °F
Wind: 13 mph from Northwest

Location: Heraklion Airport

Current Time: Jul 18, 2019 at 9:25:01 pm

Latest Report: Jul 18, 2019 at 8:20 pm


Visibility: N/A

Pressure: 29.86 "Hg

Humidity: 51%

Dew Point: 59 °F

Location of IráklionLocation

Past Weather in Iráklion — Graph

°F

Iráklion Temperature Yesterday

Maximum temperature yesterday: 81 °F (at 4:50 pm)
Minimum temperature yesterday: 68 °F (at 6:50 am)
Average temperature yesterday: 76 °F

High & Low Weather Summary for the Past Weeks

 TemperatureHumidityPressure
High95 °F (Jul 11, 9:20 am)94% (Jul 17, 6:50 am)29.89 "Hg (Jul 17, 6:50 am)
Low66 °F (Jul 13, 4:50 am)32% (Jul 11, 9:20 am)29.59 "Hg (Jul 16, 5:50 pm)
Average80 °F63%29.78 "Hg
* Reported Jul 3 9:20 pm — Jul 18 8:20 pm, Iráklion. Weather by CustomWeather, © 2019

Note: Actual official high and low records may vary slightly from our data, if they occured in-between our weather recording intervals... More about our weather records

Advertising

Iráklion Weather History for the Previous 24 Hours

Scroll right to see more
 ConditionsComfort  
Time TempWeatherWind HumidityBarometerVisibility
8:20 pm
Thu, Jul 18
79 °FPassing clouds.13 mph51%29.86 "HgN/A
7:50 pm79 °FPassing clouds.14 mph51%29.86 "HgN/A
7:20 pm81 °FPassing clouds.15 mph48%29.83 "HgN/A
6:50 pm81 °FPassing clouds.14 mph48%29.83 "HgN/A
6:20 pm81 °FPassing clouds.14 mph48%29.83 "HgN/A
5:50 pm81 °FPassing clouds.14 mph48%29.83 "HgN/A
5:20 pm81 °FPassing clouds.17 mph48%29.83 "HgN/A
4:50 pm81 °FPassing clouds.17 mph48%29.83 "HgN/A
4:20 pm82 °FPassing clouds.21 mph55%29.83 "HgN/A
3:50 pm82 °FPassing clouds.21 mph55%29.83 "HgN/A
3:20 pm82 °FPassing clouds.18 mph51%29.83 "HgN/A
2:50 pm82 °FPassing clouds.18 mph51%29.83 "HgN/A
2:20 pm82 °FPassing clouds.20 mph51%29.83 "HgN/A
1:50 pm81 °FPassing clouds.18 mph58%29.83 "HgN/A
1:20 pm81 °FScattered clouds.18 mph54%29.83 "HgN/A
12:50 pm81 °FScattered clouds.17 mph54%29.83 "HgN/A
12:20 pm81 °FScattered clouds.16 mph54%29.83 "HgN/A
11:20 am81 °FScattered clouds.16 mph54%29.80 "HgN/A
10:50 am81 °FScattered clouds.16 mph54%29.80 "HgN/A
10:20 am79 °FScattered clouds.16 mph58%29.80 "HgN/A
9:50 am79 °FScattered clouds.15 mph58%29.80 "HgN/A
9:20 am79 °FScattered clouds.14 mph58%29.80 "HgN/A
8:50 am79 °FScattered clouds.14 mph61%29.80 "HgN/A
8:20 am79 °FScattered clouds.15 mph61%29.80 "HgN/A
7:50 am77 °FScattered clouds.15 mph65%29.77 "HgN/A
7:20 am77 °FScattered clouds.15 mph65%29.77 "HgN/A
6:50 am75 °FScattered clouds.15 mph74%29.77 "HgN/A
6:20 am75 °FScattered clouds.16 mph74%29.77 "HgN/A
5:20 am75 °FPassing clouds.15 mph74%29.77 "HgN/A
4:50 am75 °FPassing clouds.15 mph74%29.77 "HgN/A
4:20 am75 °FPassing clouds.15 mph74%29.77 "HgN/A
3:50 am75 °FPassing clouds.15 mph74%29.77 "HgN/A
3:20 am75 °FPassing clouds.15 mph74%29.77 "HgN/A
2:50 am75 °FPassing clouds.15 mph74%29.77 "HgN/A
2:20 am75 °FPassing clouds.15 mph74%29.77 "HgN/A
1:50 am75 °FPassing clouds.15 mph74%29.77 "HgN/A
1:20 am75 °FPassing clouds.17 mph74%29.74 "HgN/A
12:50 am75 °FPassing clouds.17 mph74%29.77 "HgN/A
11:50 pm
Wed, Jul 17
75 °FPassing clouds.17 mph74%29.74 "HgN/A
11:20 pm75 °FPassing clouds.16 mph74%29.74 "HgN/A
10:50 pm75 °FPassing clouds.16 mph74%29.74 "HgN/A
10:20 pm75 °FPassing clouds.14 mph78%29.74 "HgN/A
9:50 pm75 °FPassing clouds.14 mph78%29.74 "HgN/A
9:20 pm77 °FPassing clouds.15 mph74%29.74 "HgN/A
Weather by CustomWeather, © 2019

See weather overview